• In Hungary
  • List of Countries
  • For 7 days
  • Water Temperature
  • Satellite Maps
  • Weather Map
  • News
  • Weather Widgets
  • user-avatar
    Login

    Hourly Weather Piwniczna Zdroj

    Today, 21 October, Sunday

    Time Temperature Precipitation Wind Pressure Humidity
    00:00 +4°C° 0.2 mm 3 mps 706 mmHg 84%
    01:00 +4°C° 0.2 mm 3 mps 706 mmHg 83%
    02:00 +3°C° 0.3 mm 3 mps 706 mmHg 85%
    03:00 +3°C° 0.3 mm 3 mps 706 mmHg 87%
    04:00 +3°C° 0.3 mm 3 mps 706 mmHg 89%
    05:00 +3°C° 0.6 mm 3 mps 706 mmHg 89%
    06:00 +3°C° 0.6 mm 3 mps 706 mmHg 90%
    07:00 +3°C° 0 mm 3 mps 707 mmHg 89%
    08:00 +4°C° 0.5 mm 3 mps 707 mmHg 89%
    09:00 +4°C° 0.5 mm 3 mps 707 mmHg 89%
    10:00 +4°C° 0.5 mm 3 mps 708 mmHg 89%
    11:00 +5°C° 0 mm 3 mps 708 mmHg 86%
    12:00 +7°C° 0 mm 3 mps 708 mmHg 82%
    13:00 +7°C° 0 mm 3 mps 708 mmHg 79%
    14:00 +7°C° 0 mm 3 mps 708 mmHg 79%
    15:00 +7°C° 0 mm 2 mps 708 mmHg 79%
    16:00 +7°C° 0 mm 2 mps 708 mmHg 79%
    17:00 +6°C° 0 mm 2 mps 708 mmHg 82%
    18:00 +5°C° 0 mm 2 mps 709 mmHg 85%
    19:00 +4°C° 0 mm 2 mps 709 mmHg 88%
    20:00 +5°C° 0 mm 1 mps 709 mmHg 88%
    21:00 +5°C° 0 mm 1 mps 709 mmHg 89%
    22:00 +4°C° 0 mm 1 mps 709 mmHg 90%
    23:00 +4°C° 0 mm 1 mps 709 mmHg 90%

    Tomorrow, 22 October, Monday

    Time Temperature Precipitation Wind Pressure Humidity
    00:00 +4°C° 0 mm 1 mps 709 mmHg 90%
    01:00 +3°C° 0 mm 1 mps 709 mmHg 89%
    02:00 +3°C° 0 mm 1 mps 708 mmHg 89%
    03:00 +3°C° 0 mm 1 mps 708 mmHg 89%
    04:00 +3°C° 0 mm 1 mps 708 mmHg 88%
    05:00 +3°C° 0 mm 1 mps 708 mmHg 87%
    06:00 +3°C° 0 mm 1 mps 708 mmHg 85%
    07:00 +4°C° 0 mm 1 mps 708 mmHg 84%
    08:00 +6°C° 0 mm 1 mps 708 mmHg 75%
    09:00 +8°C° 0 mm 1 mps 709 mmHg 66%
    10:00 +9°C° 0 mm 0 mps 709 mmHg 57%
    11:00 +11°C° 0 mm 1 mps 709 mmHg 54%
    12:00 +12°C° 0 mm 1 mps 708 mmHg 52%
    13:00 +13°C° 0 mm 1 mps 708 mmHg 49%
    14:00 +12°C° 0 mm 1 mps 708 mmHg 54%
    15:00 +11°C° 0 mm 1 mps 707 mmHg 59%
    16:00 +10°C° 0 mm 1 mps 707 mmHg 65%
    17:00 +8°C° 0 mm 1 mps 707 mmHg 69%
    18:00 +7°C° 0 mm 1 mps 707 mmHg 74%
    19:00 +6°C° 0 mm 1 mps 707 mmHg 78%
    20:00 +6°C° 0 mm 1 mps 707 mmHg 80%
    21:00 +5°C° 0 mm 1 mps 707 mmHg 81%
    22:00 +4°C° 0 mm 2 mps 707 mmHg 83%
    23:00 +4°C° 0.1 mm 2 mps 707 mmHg 82%

    Day after tomorrow, 23 October, Tuesday

    Time Temperature Precipitation Wind Pressure Humidity
    00:00 +5°C° 0.1 mm 2 mps 707 mmHg 82%
    01:00 +5°C° 0.1 mm 2 mps 707 mmHg 81%
    02:00 +5°C° 0.3 mm 2 mps 706 mmHg 83%
    03:00 +5°C° 0.3 mm 2 mps 706 mmHg 85%
    04:00 +5°C° 0.3 mm 2 mps 706 mmHg 87%
    05:00 +5°C° 0 mm 2 mps 706 mmHg 88%
    06:00 +4°C° 0 mm 2 mps 706 mmHg 89%
    07:00 +4°C° 0 mm 2 mps 706 mmHg 90%
    08:00 +5°C° 0 mm 2 mps 706 mmHg 84%
    09:00 +5°C° 0 mm 2 mps 706 mmHg 78%
    10:00 +5°C° 0 mm 3 mps 705 mmHg 71%
    11:00 +5°C° 0 mm 3 mps 705 mmHg 67%
    12:00 +7°C° 0 mm 3 mps 704 mmHg 64%
    13:00 +7°C° 0 mm 3 mps 703 mmHg 60%
    14:00 +7°C° 0.3 mm 3 mps 702 mmHg 65%
    15:00 +5°C° 0.3 mm 3 mps 701 mmHg 70%
    16:00 +5°C° 0.3 mm 3 mps 701 mmHg 75%
    17:00 +4°C° 0.1 mm 3 mps 700 mmHg 77%
    18:00 +4°C° 0.1 mm 4 mps 699 mmHg 79%
    19:00 +3°C° 0.1 mm 4 mps 698 mmHg 82%
    20:00 +4°C° 0.4 mm 4 mps 697 mmHg 82%
    21:00 +3°C° 0.4 mm 5 mps 696 mmHg 82%
    22:00 +3°C° 0.4 mm 5 mps 696 mmHg 83%
    23:00 +3°C° 0.4 mm 5 mps 695 mmHg 83%

    24 October, Wednesday

    Time Temperature Precipitation Wind Pressure Humidity
    00:00 +4°C° 0.4 mm 6 mps 694 mmHg 83%
    01:00 +4°C° 0.4 mm 6 mps 693 mmHg 83%
    02:00 +5°C° 1.1 mm 6 mps 692 mmHg 84%
    03:00 +5°C° 1.1 mm 7 mps 691 mmHg 85%
    04:00 +5°C° 1.1 mm 7 mps 691 mmHg 86%
    05:00 +4°C° 1.5 mm 7 mps 691 mmHg 83%
    06:00 +3°C° 1.5 mm 7 mps 691 mmHg 80%
    07:00 +2°C° 1.5 mm 7 mps 691 mmHg 78%
    08:00 +1°C° 0.4 mm 8 mps 692 mmHg 72%
    09:00 0°C° 0.4 mm 8 mps 693 mmHg 67%
    10:00 0°C° 0.4 mm 9 mps 694 mmHg 62%
    11:00 0°C° 0.1 mm 9 mps 694 mmHg 58%
    12:00 +1°C° 0.1 mm 9 mps 694 mmHg 54%
    13:00 +1°C° 0.1 mm 9 mps 695 mmHg 51%
    14:00 +1°C° 0 mm 8 mps 695 mmHg 52%
    15:00 +2°C° 0 mm 7 mps 695 mmHg 54%
    16:00 0°C° 0 mm 7 mps 696 mmHg 56%
    17:00 0°C° 0 mm 7 mps 696 mmHg 57%
    18:00 +1°C° 0 mm 6 mps 697 mmHg 58%
    19:00 -1°C° 0 mm 6 mps 697 mmHg 60%
    20:00 -1°C° 0 mm 6 mps 697 mmHg 62%
    21:00 -2°C° 0 mm 6 mps 698 mmHg 64%
    22:00 -2°C° 0 mm 6 mps 698 mmHg 66%
    23:00 -1°C° 0 mm 5 mps 698 mmHg 68%

    25 October, Thursday

    Time Temperature Precipitation Wind Pressure Humidity
    00:00 -2°C° 0 mm 5 mps 698 mmHg 70%
    01:00 -2°C° 0 mm 4 mps 699 mmHg 73%
    02:00 -2°C° 0 mm 4 mps 699 mmHg 75%
    03:00 -2°C° 0 mm 4 mps 699 mmHg 78%
    04:00 -2°C° 0 mm 4 mps 699 mmHg 80%
    05:00 -2°C° 0 mm 4 mps 699 mmHg 80%
    06:00 -2°C° 0 mm 4 mps 699 mmHg 80%
    07:00 -1°C° 0 mm 3 mps 699 mmHg 81%
    08:00 +1°C° 0.2 mm 3 mps 699 mmHg 79%
    09:00 +2°C° 0.2 mm 3 mps 699 mmHg 78%
    10:00 +3°C° 0.2 mm 3 mps 699 mmHg 77%
    11:00 +4°C° 0.8 mm 4 mps 698 mmHg 79%
    12:00 +5°C° 0.8 mm 4 mps 698 mmHg 80%
    13:00 +6°C° 0.8 mm 5 mps 697 mmHg 82%
    14:00 +6°C° 0.2 mm 5 mps 697 mmHg 83%
    15:00 +6°C° 0.2 mm 4 mps 697 mmHg 85%
    16:00 +6°C° 0.2 mm 4 mps 697 mmHg 86%
    17:00 +5°C° 0.1 mm 4 mps 697 mmHg 87%
    18:00 +5°C° 0.1 mm 4 mps 698 mmHg 89%
    19:00 +5°C° 0.1 mm 4 mps 698 mmHg 90%
    20:00 +5°C° 0.1 mm 4 mps 698 mmHg 90%
    21:00 +5°C° 0.1 mm 4 mps 698 mmHg 89%
    22:00 +5°C° 0.1 mm 5 mps 698 mmHg 89%
    23:00 +5°C° 0.1 mm 4 mps 698 mmHg 89%

    26 October, Friday

    Time Temperature Precipitation Wind Pressure Humidity
    00:00 +5°C° 0.1 mm 4 mps 698 mmHg 90%
    01:00 +5°C° 0.1 mm 3 mps 699 mmHg 91%
    02:00 +5°C° 0 mm 3 mps 699 mmHg 90%
    03:00 +5°C° 0 mm 3 mps 699 mmHg 90%
    04:00 +4°C° 0 mm 3 mps 699 mmHg 90%
    05:00 +4°C° 0 mm 3 mps 699 mmHg 90%
    06:00 +5°C° 0 mm 2 mps 699 mmHg 90%
    07:00 +4°C° 0 mm 2 mps 699 mmHg 91%
    08:00 +6°C° 0 mm 2 mps 699 mmHg 83%
    09:00 +8°C° 0 mm 2 mps 700 mmHg 76%
    10:00 +9°C° 0 mm 2 mps 700 mmHg 69%
    11:00 +10°C° 0 mm 2 mps 700 mmHg 65%
    12:00 +12°C° 0 mm 2 mps 700 mmHg 61%
    13:00 +13°C° 0 mm 2 mps 700 mmHg 57%
    14:00 +12°C° 0 mm 2 mps 699 mmHg 63%
    15:00 +10°C° 0 mm 2 mps 699 mmHg 68%
    16:00 +8°C° 0 mm 2 mps 698 mmHg 73%
    17:00 +8°C° 0 mm 2 mps 698 mmHg 77%
    18:00 +7°C° 0 mm 2 mps 698 mmHg 81%
    19:00 +5°C° 0 mm 3 mps 697 mmHg 84%
    20:00 +5°C° 0 mm 3 mps 697 mmHg 85%
    21:00 +5°C° 0 mm 3 mps 697 mmHg 86%
    22:00 +5°C° 0 mm 3 mps 696 mmHg 88%
    23:00 +7°C° 0 mm 3 mps 696 mmHg 88%
    Show more